Location: Bratislava
(48.1500°N, 17.1167°E)
Time: 03:17:11
(UTC+01:00)

ISS - Visible Passes

Search period start: 11 December 2017 00:00
Search period end: 21 December 2017 00:00
Orbit: 402 x 407 km, 51.6° (Epoch: 10 December)

Date Brightness Start Highest point End Pass type
(mag) Time Alt. Az. Time Alt. Az. Time Alt. Az.
11 Dec -3.4 16:36:24 10° WNW 16:39:37 46° N 16:42:48 10° E visible
11 Dec -3.3 18:12:57 10° WNW 18:15:46 58° WSW 18:15:46 58° WSW visible
12 Dec -3.9 17:20:39 10° WNW 17:23:57 81° NNE 17:25:56 22° ESE visible
12 Dec -0.8 18:57:31 10° W 18:58:37 16° WSW 18:58:37 16° WSW visible
13 Dec -3.7 16:28:21 10° WNW 16:31:38 59° NNE 16:34:53 10° E visible
13 Dec -2.4 18:04:58 10° WNW 18:08:01 36° SW 18:08:58 29° S visible
14 Dec -3.3 17:12:34 10° WNW 17:15:49 58° SSW 17:19:02 10° SE visible
14 Dec -0.6 18:50:42 10° WSW 18:51:43 11° SW 18:52:15 11° SW visible
15 Dec -1.1 17:57:16 10° W 17:59:39 19° SW 18:02:02 10° S visible
16 Dec -1.8 17:04:34 10° W 17:07:31 30° SW 17:10:26 10° SSE visible
18 Dec -0.6 16:56:57 10° W 16:59:02 16° SW 17:01:06 10° S visible
